DW6352 Weather Reports


time (UTC)temp
F
wind
direction
speed
knots
gust
knots
rain 1hr
in
rain 24hr
in
rain mn
in
humidity
%
barometer
mb
20200922212020 82 187 1.7 4.3 0.00 0.00 0.00 52 1016.8
20200922211520 82 167 2.6 5.2 0.00 0.00 0.00 52 1016.8
20200922211020 81 137 2.6 7.8 0.00 0.00 0.00 52 1016.8
20200922210515 81 136 1.7 7.8 0.00 0.00 0.00 52 1016.9
20200922210021 81 129 1.7 5.2 0.00 0.00 0.00 51 1017.0
20200922205511 81 114 1.7 4.3 0.00 0.00 0.00 50 1017.1
20200922205012 81 116 2.6 7.0 0.00 0.00 0.00 50 1017.1
20200922204517 81 134 2.6 7.0 0.00 0.00 0.00 50 1017.2
20200922204012 81 149 1.7 4.3 0.00 0.00 0.00 49 1017.2
20200922203512 81 146 1.7 4.3 0.00 0.00 0.00 51 1017.2
20200922203026 81 159 1.7 5.2 0.00 0.00 0.00 50 1017.3
20200922202510 82 149 2.6 6.1 0.00 0.00 0.00 48 1017.3
20200922202010 82 146 2.6 6.1 0.00 0.00 0.00 48 1017.4
20200922201518 82 142 2.6 7.0 0.00 0.00 0.00 49 1017.4
20200922201016 82 136 2.6 7.0 0.00 0.00 0.00 49 1017.5
20200922200510 82 146 1.7 5.2 0.00 0.00 0.00 48 1017.5
20200922200025 82 161 1.7 5.2 0.00 0.00 0.00 48 1017.4
20200922195510 82 159 2.6 6.1 0.00 0.00 0.00 49 1017.4
20200922195011 82 154 1.7 6.1 0.00 0.00 0.00 50 1017.4
20200922194512 82 168 1.7 5.2 0.00 0.00 0.00 49 1017.5
20200922194010 81 162 1.7 5.2 0.00 0.00 0.00 49 1017.6
20200922193511 81 142 2.6 7.0 0.00 0.00 0.00 50 1017.7
20200922193018 81 143 2.6 7.0 0.00 0.00 0.00 50 1017.8
20200922192510 81 135 2.6 7.0 0.00 0.00 0.00 49 1017.8
20200922192010 80 122 3.5 11.3 0.00 0.00 0.00 49 1017.9
20200922191520 81 121 2.6 11.3 0.00 0.00 0.00 50 1018.0
20200922191010 80 119 3.5 7.0 0.00 0.00 0.00 50 1018.1
20200922190512 80 123 3.5 7.0 0.00 0.00 0.00 51 1018.2
20200922190022 81 135 2.6 6.1 0.00 0.00 0.00 49 1018.2
20200922185514 80 133 2.6 6.1 0.00 0.00 0.00 51 1018.3
20200922185018 80 130 2.6 7.0 0.00 0.00 0.00 50 1018.4
20200922184523 80 133 2.6 7.0 0.00 0.00 0.00 49 1018.5
20200922184017 80 132 2.6 7.8 0.00 0.00 0.00 51 1018.5
20200922183510 80 130 3.5 7.8 0.00 0.00 0.00 51 1018.6
20200922183017 80 126 3.5 7.0 0.00 0.00 0.00 50 1018.6
20200922182511 80 122 3.5 8.7 0.00 0.00 0.00 50 1018.7
20200922182010 80 126 2.6 8.7 0.00 0.00 0.00 48 1018.7
20200922181518 80 143 1.7 5.2 0.00 0.00 0.00 50 1018.9
20200922181029 80 133 2.6 6.1 0.00 0.00 0.00 53 1018.9
20200922180511 79 130 2.6 6.1 0.00 0.00 0.00 52 1019.1
20200922180017 79 122 2.6 6.1 0.00 0.00 0.00 52 1019.2
20200922175521 79 118 2.6 6.1 0.00 0.00 0.00 55 1019.2
20200922175010 79 128 2.6 7.0 0.00 0.00 0.00 54 1019.3
20200922174514 79 132 2.6 7.0 0.00 0.00 0.00 55 1019.3
20200922174011 78 127 2.6 6.1 0.00 0.00 0.00 58 1019.4
20200922173510 78 116 2.6 6.1 0.00 0.00 0.00 58 1019.4
20200922173027 78 117 2.6 6.1 0.00 0.00 0.00 58 1019.4
20200922172510 78 120 2.6 6.1 0.00 0.00 0.00 59 1019.4
20200922172010 78 128 1.7 4.3 0.00 0.00 0.00 59 1019.5
20200922171520 78 154 0.9 4.3 0.00 0.00 0.00 58 1019.6
20200922171013 78 176 0.9 2.6 0.00 0.00 0.00 60 1019.7
20200922170512 77 239 1.7 3.5 0.00 0.00 0.00 61 1019.8
20200922170024 77 223 1.7 3.5 0.00 0.00 0.00 61 1019.8
20200922165512 76 146 0.9 3.5 0.00 0.00 0.00 62 1019.8
20200922165014 76 141 0.9 3.5 0.00 0.00 0.00 63 1019.8
20200922164518 75 127 1.7 3.5 0.00 0.00 0.00 63 1019.8
20200922164011 75 114 1.7 3.5 0.00 0.00 0.00 64 1019.9
20200922163519 74 116 1.7 3.5 0.00 0.00 0.00 65 1019.9
20200922163017 74 119 1.7 3.5 0.00 0.00 0.00 65 1020.0
20200922162512 74 125 0.9 3.5 0.00 0.00 0.00 65 1020.0
20200922162015 73 164 0.9 2.6 0.00 0.00 0.00 67 1020.0
20200922161510 73 161 0.9 3.5 0.00 0.00 0.00 67 1020.0
20200922161010 72 130 0.9 3.5 0.00 0.00 0.00 68 1020.0
20200922160510 72 153 0.9 2.6 0.00 0.00 0.00 69 1020.0
20200922160021 71 158 0.9 3.5 0.00 0.00 0.00 69 1020.1
20200922155512 71 121 0.9 3.5 0.00 0.00 0.00 70 1020.2
20200922155014 70 117 0.9 2.6 0.00 0.00 0.00 71 1020.1
20200922154518 70 179 0.9 2.6 0.00 0.00 0.00 72 1020.2
20200922154017 70 206 0.9 2.6 0.00 0.00 0.00 73 1020.3
20200922153511 69 176 0.9 2.6 0.00 0.00 0.00 74 1020.3
20200922153018 69 194 0.9 2.6 0.00 0.00 0.00 74 1020.3
20200922152510 68 175 0.9 3.5 0.00 0.00 0.00 75 1020.4
20200922152013 68 170 0.9 3.5 0.00 0.00 0.00 77 1020.4
20200922151519 67 175 0.9 3.5 0.00 0.00 0.00 79 1020.4
20200922151014 66 193 0.9 2.6 0.00 0.00 0.00 80 1020.4
20200922150511 65 239 0.9 3.5 0.00 0.00 0.00 82 1020.3
20200922150022 65 218 0.9 3.5 0.00 0.00 0.00 84 1020.4
20200922145519 64 172 0.9 2.6 0.00 0.00 0.00 86 1020.3
20200922145010 63 232 0.9 3.5 0.00 0.00 0.00 89 1020.3
20200922144510 62 244 0.9 3.5 0.00 0.00 0.00 89 1020.3
20200922144011 62 247 0.9 2.6 0.00 0.00 0.00 91 1020.2
20200922143511 61 244 0.9 3.5 0.00 0.00 0.00 93 1020.4
20200922143014 61 246 1.7 4.3 0.00 0.00 0.00 93 1020.4
20200922142510 60 244 0.9 4.3 0.00 0.00 0.00 93 1020.4
20200922142010 60 211 0.0 2.6 0.00 0.00 0.00 94 1020.4
20200922141519 60 157 0.0 0.9 0.00 0.00 0.00 95 1020.4
20200922140017 58 239 0.0 2.6 0.00 0.00 0.00 95 1020.4
20200922135511 58 231 0.9 2.6 0.00 0.00 0.00 95 1020.4
20200922135010 58 219 0.9 2.6 0.00 0.00 0.00 95 1020.4
20200922134522 57 161 0.0 0.9 0.00 0.00 0.00 95 1020.3
20200922134011 57 161 0.0 0.9 0.00 0.00 0.00 95 1020.3
20200922133510 57 161 0.0 0.9 0.00 0.00 0.00 95 1020.2
20200922133019 56 161 0.0 0.9 0.00 0.00 0.00 95 1020.2
20200922132509 55 161 0.0 0.9 0.00 0.00 0.00 95 1020.2
20200922132011 54 161 0.0 0.9 0.00 0.00 0.00 95 1020.3
20200922131520 54 161 0.0 0.9 0.00 0.00 0.00 95 1020.4
20200922131016 53 0 0.0 0.0 0.00 0.00 0.00 95 1020.4
20200922130517 52 0 0.0 0.0 0.00 0.00 0.00 94 1020.4
20200922130016 52 0 0.0 0.0 0.00 0.00 0.00 94 1020.4
20200922125512 51 0 0.0 0.0 0.00 0.00 0.00 94 1020.4
20200922125007 51 0 0.0 0.0 0.00 0.00 0.00 94 1020.4
20200922124522 50 0 0.0 0.0 0.00 0.00 0.00 94 1020.4
20200922124017 50 0 0.0 0.0 0.00 0.00 0.00 94 1020.4
20200922123510 50 0 0.0 0.0 0.00 0.00 0.00 93 1020.5
20200922123024 50 0 0.0 0.0 0.00 0.00 0.00 93 1020.4
20200922122518 49 0 0.0 0.0 0.00 0.00 0.00 93 1020.4
20200922122008 49 0 0.0 0.0 0.00 0.00 0.00 93 1020.4
20200922121523 49 0 0.0 0.0 0.00 0.00 0.00 93 1020.4
20200922121008 49 0 0.0 0.0 0.00 0.00 0.00 92 1020.3
20200922120510 49 0 0.0 0.0 0.00 0.00 0.00 92 1020.2
20200922120019 49 0 0.0 0.0 0.00 0.00 0.00 92 1020.1
20200922115510 49 0 0.0 0.0 0.00 0.00 0.00 92 1020.0
20200922115015 49 0 0.0 0.0 0.00 0.00 0.00 92 1020.0
20200922114509 50 0 0.0 0.0 0.00 0.00 0.00 92 1020.0
20200922114010 50 0 0.0 0.0 0.00 0.00 0.00 92 1019.9
20200922113511 50 0 0.0 0.0 0.00 0.00 0.00 92 1019.9
20200922113017 50 0 0.0 0.0 0.00 0.00 0.00 92 1020.0
20200922112510 50 0 0.0 0.0 0.00 0.00 0.00 92 1019.9
20200922112016 50 0 0.0 0.0 0.00 0.00 0.00 92 1019.9
20200922111507 50 0 0.0 0.0 0.00 0.00 0.00 92 1019.8
20200922111011 50 0 0.0 0.0 0.00 0.00 0.00 92 1019.7
20200922110517 50 0 0.0 0.0 0.00 0.00 0.00 92 1019.7
20200922110017 50 0 0.0 0.0 0.00 0.00 0.00 92 1019.6
20200922105507 50 0 0.0 0.0 0.00 0.00 0.00 92 1019.6
20200922105009 50 0 0.0 0.0 0.00 0.00 0.00 92 1019.6
20200922104515 51 0 0.0 0.0 0.00 0.00 0.00 92 1019.6
20200922104007 51 0 0.0 0.0 0.00 0.00 0.00 92 1019.6
20200922103510 51 0 0.0 0.0 0.00 0.00 0.00 92 1019.6
20200922103020 51 0 0.0 0.0 0.00 0.00 0.00 92 1019.6
20200922102510 51 0 0.0 0.0 0.00 0.00 0.00 92 1019.6
20200922102016 51 0 0.0 0.0 0.00 0.00 0.00 92 1019.6
20200922101519 51 0 0.0 0.0 0.00 0.00 0.00 92 1019.5
20200922101015 51 0 0.0 0.0 0.00 0.00 0.00 92 1019.5
20200922100518 52 0 0.0 0.0 0.00 0.00 0.00 92 1019.5
20200922100019 52 0 0.0 0.0 0.00 0.00 0.00 91 1019.5
20200922095509 52 0 0.0 0.0 0.00 0.00 0.00 92 1019.5
20200922095009 52 0 0.0 0.0 0.00 0.00 0.00 92 1019.5
20200922094507 52 0 0.0 0.0 0.00 0.00 0.00 92 1019.5
20200922094009 52 0 0.0 0.0 0.00 0.00 0.00 91 1019.5
20200922093510 52 0 0.0 0.0 0.00 0.00 0.00 91 1019.5
20200922093023 52 161 0.0 0.9 0.00 0.00 0.00 91 1019.5
20200922092508 52 161 0.0 0.9 0.00 0.00 0.00 91 1019.5
20200922092008 52 0 0.0 0.0 0.00 0.00 0.00 91 1019.5
20200922091514 52 0 0.0 0.0 0.00 0.00 0.00 91 1019.5
20200922091014 52 0 0.0 0.0 0.00 0.00 0.00 91 1019.5
20200922090507 52 0 0.0 0.0 0.00 0.00 0.00 91 1019.5
20200922090021 53 0 0.0 0.0 0.00 0.00 0.00 91 1019.4
20200922085511 53 0 0.0 0.0 0.00 0.00 0.00 91 1019.4
20200922085008 53 0 0.0 0.0 0.00 0.00 0.00 91 1019.5
20200922084517 53 0 0.0 0.0 0.00 0.00 0.00 91 1019.6
20200922084012 53 0 0.0 0.0 0.00 0.00 0.00 91 1019.4
20200922083516 53 0 0.0 0.0 0.00 0.00 0.00 90 1019.4
20200922083009 53 0 0.0 0.0 0.00 0.00 0.00 90 1019.5
20200922082511 53 0 0.0 0.0 0.00 0.00 0.00 90 1019.6
20200922082010 53 0 0.0 0.0 0.00 0.00 0.00 90 1019.5
20200922081513 53 0 0.0 0.0 0.00 0.00 0.00 90 1019.5
20200922081014 53 0 0.0 0.0 0.00 0.00 0.00 90 1019.5
20200922080509 53 0 0.0 0.0 0.00 0.00 0.00 90 1019.5
20200922080017 53 0 0.0 0.0 0.00 0.00 0.00 90 1019.5
20200922075508 54 0 0.0 0.0 0.00 0.00 0.00 89 1019.5
20200922075008 54 0 0.0 0.0 0.00 0.00 0.00 90 1019.5
20200922074519 54 0 0.0 0.0 0.00 0.00 0.00 90 1019.5
20200922074008 54 0 0.0 0.0 0.00 0.00 0.00 89 1019.5
20200922073508 54 0 0.0 0.0 0.00 0.00 0.00 89 1019.5
20200922073018 54 0 0.0 0.0 0.00 0.00 0.00 90 1019.5
20200922072507 54 0 0.0 0.0 0.00 0.00 0.00 90 1019.5
20200922072009 54 0 0.0 0.0 0.00 0.00 0.00 89 1019.4
20200922071516 55 0 0.0 0.0 0.00 0.00 0.00 89 1019.4
20200922071009 55 0 0.0 0.0 0.00 0.00 0.00 89 1019.5
20200922070507 55 0 0.0 0.0 0.00 0.00 0.00 89 1019.4
20200922070017 55 0 0.0 0.0 0.00 0.00 0.00 89 1019.4
20200922065510 55 0 0.0 0.0 0.00 0.00 0.00 89 1019.5
20200922065011 55 0 0.0 0.0 0.00 0.00 0.00 89 1019.4
20200922064512 55 0 0.0 0.0 0.00 0.00 0.00 89 1019.4
20200922064008 55 0 0.0 0.0 0.00 0.00 0.00 88 1019.4
20200922063512 56 0 0.0 0.0 0.00 0.00 0.00 88 1019.4
20200922063017 56 0 0.0 0.0 0.00 0.00 0.00 88 1019.4
20200922062514 56 0 0.0 0.0 0.00 0.00 0.00 88 1019.5
20200922062006 56 0 0.0 0.0 0.00 0.00 0.00 88 1019.5
20200922061515 56 0 0.0 0.0 0.00 0.00 0.00 88 1019.5
20200922061007 56 0 0.0 0.0 0.00 0.00 0.00 87 1019.5
20200922060511 56 0 0.0 0.0 0.00 0.00 0.00 87 1019.5
20200922060019 56 0 0.0 0.0 0.00 0.00 0.00 87 1019.4
20200922055514 56 0 0.0 0.0 0.00 0.00 0.00 87 1019.5
20200922055008 57 0 0.0 0.0 0.00 0.00 0.00 86 1019.6
20200922054517 57 0 0.0 0.0 0.00 0.00 0.00 86 1019.6
20200922054023 57 0 0.0 0.0 0.00 0.00 0.00 86 1019.6
20200922053507 57 0 0.0 0.0 0.00 0.00 0.00 85 1019.5
20200922053011 57 0 0.0 0.0 0.00 0.00 0.00 85 1019.6
20200922052506 58 0 0.0 0.0 0.00 0.00 0.00 85 1019.6
20200922052010 58 0 0.0 0.0 0.00 0.00 0.00 85 1019.5
20200922051508 58 0 0.0 0.0 0.00 0.00 0.00 85 1019.5
20200922051007 58 0 0.0 0.0 0.00 0.00 0.00 84 1019.5
20200922050509 58 0 0.0 0.0 0.00 0.00 0.00 84 1019.4
20200922050019 58 0 0.0 0.0 0.00 0.00 0.00 83 1019.4
20200922045511 59 0 0.0 0.0 0.00 0.00 0.00 82 1019.4
20200922045010 59 0 0.0 0.0 0.00 0.00 0.00 82 1019.4
20200922044514 59 0 0.0 0.0 0.00 0.00 0.00 81 1019.3
20200922044008 60 0 0.0 0.0 0.00 0.00 0.00 81 1019.3
20200922043512 60 0 0.0 0.0 0.00 0.00 0.00 81 1019.3
20200922043018 60 0 0.0 0.0 0.00 0.00 0.00 80 1019.4
20200922042508 60 0 0.0 0.0 0.00 0.00 0.00 80 1019.2
20200922042006 61 0 0.0 0.0 0.00 0.00 0.00 79 1019.2
20200922041513 61 0 0.0 0.0 0.00 0.00 0.00 79 1019.3
20200922041007 61 0 0.0 0.0 0.00 0.00 0.00 79 1019.3
20200922040508 61 0 0.0 0.0 0.00 0.00 0.00 78 1019.2
20200922040020 62 0 0.0 0.0 0.00 0.00 0.00 78 1019.2
20200922035510 62 0 0.0 0.0 0.00 0.00 0.00 79 1019.2
20200922035011 62 0 0.0 0.0 0.00 0.00 0.00 79 1019.2
20200922034527 62 161 0.0 0.9 0.00 0.00 0.00 79 1019.2
20200922034009 62 161 0.0 0.9 0.00 0.00 0.00 79 1019.2
20200922033510 63 161 0.0 0.9 0.00 0.00 0.00 79 1019.2
20200922033015 63 161 0.0 0.9 0.00 0.00 0.00 79 1019.1
20200922032508 63 161 0.0 1.7 0.00 0.00 0.00 79 1019.1
20200922032010 63 160 0.0 1.7 0.00 0.00 0.00 79 1019.1
20200922031510 63 161 0.0 1.7 0.00 0.00 0.00 78 1019.0
20200922031010 63 162 0.0 1.7 0.00 0.00 0.00 78 1019.1
20200922030506 64 165 0.0 1.7 0.00 0.00 0.00 78 1019.0
20200922030018 64 165 0.0 1.7 0.00 0.00 0.00 78 1018.9
20200922025510 64 165 0.0 1.7 0.00 0.00 0.00 78 1018.9
20200922025009 64 165 0.0 1.7 0.00 0.00 0.00 77 1018.9
20200922024512 64 164 0.0 1.7 0.00 0.00 0.00 77 1018.9
20200922024009 64 160 0.0 1.7 0.00 0.00 0.00 77 1018.8
20200922023513 64 165 0.0 1.7 0.00 0.00 0.00 77 1018.8
20200922023019 64 166 0.0 1.7 0.00 0.00 0.00 77 1018.8
20200922022508 64 163 0.0 0.9 0.00 0.00 0.00 78 1018.8
20200922022007 64 163 0.0 2.6 0.00 0.00 0.00 78 1018.8
20200922021513 64 157 0.0 2.6 0.00 0.00 0.00 78 1018.7
20200922021008 64 151 0.0 2.6 0.00 0.00 0.00 78 1018.7
20200922020507 64 149 0.0 2.6 0.00 0.00 0.00 78 1018.7
20200922020021 64 162 0.0 1.7 0.00 0.00 0.00 78 1018.7
20200922015508 64 162 0.0 1.7 0.00 0.00 0.00 78 1018.6
20200922015018 64 162 0.0 1.7 0.00 0.00 0.00 78 1018.7
20200922014516 64 162 0.0 1.7 0.00 0.00 0.00 78 1018.6
20200922014009 64 159 0.9 1.7 0.00 0.00 0.00 78 1018.5
20200922013512 64 161 0.9 2.6 0.00 0.00 0.00 79 1018.6
20200922013018 64 168 0.0 2.6 0.00 0.00 0.00 79 1018.5
20200922012510 64 171 0.0 1.7 0.00 0.00 0.00 79 1018.5
20200922012011 64 172 0.0 1.7 0.00 0.00 0.00 79 1018.6
20200922011511 64 168 0.9 2.6 0.00 0.00 0.00 79 1018.5
20200922011008 65 167 0.9 2.6 0.00 0.00 0.00 79 1018.4
20200922010506 65 165 0.9 3.5 0.00 0.00 0.00 79 1018.5
20200922010014 65 172 0.9 3.5 0.00 0.00 0.00 78 1018.5
20200922005508 66 186 0.0 1.7 0.00 0.00 0.00 76 1018.5
20200922005007 66 0 0.0 0.0 0.00 0.00 0.00 75 1018.6
20200922004512 66 0 0.0 0.0 0.00 0.00 0.00 74 1018.6
20200922004011 67 0 0.0 0.0 0.00 0.00 0.00 73 1018.7
20200922003514 67 0 0.0 0.0 0.00 0.00 0.00 72 1018.7
20200922003019 68 0 0.0 0.0 0.00 0.00 0.00 71 1018.7
20200922002507 68 0 0.0 0.0 0.00 0.00 0.00 71 1018.7
20200922002020 69 0 0.0 0.0 0.00 0.00 0.00 69 1018.7
20200922001517 70 0 0.0 0.0 0.00 0.00 0.00 69 1018.6
20200922001008 70 186 0.0 0.9 0.00 0.00 0.00 68 1018.6
20200922000511 71 186 0.0 0.9 0.00 0.00 0.00 67 1018.5
20200922000010 71 186 0.0 0.9 0.00 0.00 0.00 67 1018.5
20200921235512 72 186 0.0 0.9 0.00 0.00 0.00 66 1018.5
20200921235007 72 186 0.0 0.9 0.00 0.00 0.00 65 1018.5
20200921234519 72 0 0.0 0.0 0.00 0.00 0.00 65 1018.5
20200921234008 72 0 0.0 0.0 0.00 0.00 0.00 64 1018.5
20200921233509 73 186 0.0 1.7 0.00 0.00 0.00 64 1018.4
20200921233011 73 186 0.0 1.7 0.00 0.00 0.00 63 1018.4
20200921232513 73 188 0.0 0.9 0.00 0.00 0.00 63 1018.4
20200921232012 73 188 0.0 0.9 0.00 0.00 0.00 62 1018.4
20200921231515 74 188 0.0 0.9 0.00 0.00 0.00 62 1018.4
20200921231009 74 188 0.0 1.7 0.00 0.00 0.00 62 1018.4
20200921230509 74 190 0.0 1.7 0.00 0.00 0.00 61 1018.4
20200921230007 74 228 0.0 2.6 0.00 0.00 0.00 61 1018.3
20200921225510 74 232 0.9 3.5 0.00 0.00 0.00 62 1018.3
20200921225010 74 223 0.9 3.5 0.00 0.00 0.00 62 1018.2
20200921224516 74 214 0.9 3.5 0.00 0.00 0.00 62 1018.2
20200921224008 74 205 0.9 3.5 0.00 0.00 0.00 62 1018.2
20200921223511 74 201 0.9 2.6 0.00 0.00 0.00 62 1018.2
20200921223014 74 237 0.9 3.5 0.00 0.00 0.00 61 1018.2
20200921222507 74 246 0.9 5.2 0.00 0.00 0.00 61 1018.3
20200921222009 74 239 0.9 5.2 0.00 0.00 0.00 60 1018.3
20200921221513 74 220 0.9 4.3 0.00 0.00 0.00 61 1018.3
20200921221008 74 230 0.9 4.3 0.00 0.00 0.00 60 1018.3
20200921220509 74 245 1.7 4.3 0.00 0.00 0.00 59 1018.2
20200921220018 74 252 0.9 4.3 0.00 0.00 0.00 59 1018.2
20200921215508 74 253 1.7 6.1 0.00 0.00 0.00 59 1018.2
20200921215008 74 225 1.7 6.1 0.00 0.00 0.00 58 1018.2
20200921214510 74 210 1.7 5.2 0.00 0.00 0.00 58 1018.2
20200921214010 74 224 1.7 3.5 0.00 0.00 0.00 59 1018.2
20200921213510 74 213 1.7 5.2 0.00 0.00 0.00 58 1018.2
20200921213009 73 210 1.7 5.2 0.00 0.00 0.00 60 1018.3
20200921212512 73 202 1.7 5.2 0.00 0.00 0.00 61 1018.4